SCP
0 0 0 0 0 0 0 0 0 0 0 0 0 0 0 0 0 0 0 0 0 1 1 0 0 0 0 0 0 0 0 0 0 0 0 0 0 0 0 0 0 0 0
0 0 0 0 0 0 0 0 0 0 0 0 0 0 0 0 0 0 0 0 0 0 1 1 0 0 0 0 0 0 0 0 0 0 0 0 0 0 0 0 0 0 0
0 0 0 0 0 0 0 0 0 0 0 0 0 0 0 0 0 0 0 0 0 0 1 1 1 1 1 0 0 0 0 0 0 0 0 0 0 0 0 0 0 0 0
0 0 0 0 0 0 0 0 0 0 0 0 0 0 0 0 0 0 0 0 0 0 0 0 0 0 1 1 0 0 0 0 0 0 0 0 0 0 0 0 0 0 0
0 0 0 0 0 0 0 0 0 0 0 0 0 0 0 0 0 0 0 0 0 0 0 0 0 0 0 1 1 1 0 0 0 0 0 0 0 0 0 0 0 0 0
0 0 0 0 0 0 0 0 0 0 0 0 0 0 0 0 0 0 0 0 0 0 0 0 0 0 0 0 1 1 0 0 0 0 0 0 0 0 0 0 0 0 0
0 0 0 0 0 0 0 0 0 0 0 0 0 0 0 0 0 0 0 0 0 0 0 0 0 0 0 0 0 1 1 0 0 0 0 0 0 0 0 0 0 0 0
0 0 0 0 0 0 0 0 0 0 0 0 0 0 0 0 0 0 0 0 0 0 1 0 0 0 0 0 0 0 1 1 1 0 0 0 0 0 0 0 0 0 0
0 0 0 0 0 0 0 0 0 0 0 0 0 0 0 0 0 0 0 0 0 0 0 0 0 0 0 0 0 0 0 0 1 0 0 0 0 0 0 0 0 0 0
0 0 0 0 0 0 0 0 0 0 0 0 0 0 0 0 0 0 0 0 0 0 0 0 0 1 0 0 0 0 0 0 0 0 0 0 0 0 0 0 0 0 0
0 0 0 0 0 0 0 0 0 0 0 0 0 0 0 0 0 0 0 0 0 0 0 0 0 0 0 0 0 0 0 0 0 0 0 0 0 0 0 0 0 0 0
0 0 0 0 0 0 0 0 0 0 0 0 0 0 0 0 0 0 0 0 0 0 0 0 0 0 0 0 0 0 0 0 0 0 0 0 0 0 0 0 0 0 0
0 0 0 0 0 0 0 0 0 0 0 0 0 0 0 0 0 0 0 0 0 0 0 0 0 0 0 1 0 0 0 0 0 0 0 0 0 0 0 0 0 0 0
0 0 0 0 0 0 0 0 0 0 0 0 0 0 0 0 0 0 0 0 0 0 0 0 0 0 0 0 0 0 0 0 0 0 0 0 0 0 0 0 0 0 0
0 0 0 0 0 0 0 0 0 0 0 0 0 0 0 0 0 0 0 0 0 0 0 0 0 0 0 0 0 0 0 0 0 0 0 0 0 0 0 0 0 0 0
0 0 0 0 0 0 0 0 0 0 0 0 0 0 0 0 0 0 0 0 0 0 0 0 0 0 0 0 0 0 0 0 0 0 0 0 0 0 0 0 0 0 0
0 0 0 0 0 0 0 0 0 0 0 0 0 0 0 0 0 0 0 0 0 0 0 0 0 0 0 0 0 0 0 0 0 0 0 0 0 0 0 0 0 0 0
0 0 0 0 0 0 0 0 0 0 0 0 0 0 0 0 0 0 0 0 0 0 0 0 0 0 0 0 0 0 0 0 0 0 0 0 0 0 0 0 0 0 0
0 0 0 0 0 0 0 0 0 0 0 0 0 0 0 0 0 0 0 0 0 0 0 0 0 0 0 0 0 0 0 0 0 0 0 0 0 0 0 0 0 0 0
0 0 0 0 0 0 0 0 0 0 0 0 0 0 0 0 0 0 0 0 0 0 0 0 0 0 -0 0 0 0 0 0 0 0 0 0 0 0 0 0 0 0 0
0 0 0 0 0 0 0 0 0 0 0 0 0 0 0 0 0 0 0 0 0 -0 -0 0 0 0 0 0 0 0 0 0 0 0 0 0 0 0 0 0 0 0 0
0 0 0 0 0 0 0 0 0 0 0 0 0 0 0 0 0 -0 0 0 -0 0 -0 0 0 0 0 0 0 0 0 0 0 0 0 0 0 0 0 0 0 0 0
0 0 0 0 0 0 0 0 0 0 0 0 0 0 0 0 0 0 0 -0 -0 -0 -0 0 -0 0 0 0 0 0 0 0 0 0 0 0 0 0 0 0 0 0 0
0 0 0 0 0 0 0 0 0 0 0 0 0 0 0 0 0 0 -0 -0 0 0 -0 -0 0 0 0 0 0 0 0 0 0 0 0 0 0 0 0 0 0 0 0
0 0 0 0 0 0 0 0 0 0 0 0 0 -0 0 0 0 0 -0 -0 0 0 0 0 0 0 0 0 0 0 0 0 0 0 0 0 0 0 0 0 0 0 0
0 0 0 0 0 0 0 0 0 0 0 0 0 0 -0 0 0 0 0 0 0 0 0 -0 -0 -0 0 0 0 0 0 0 0 0 0 0 0 0 0 0 0 0 0
Wind_Speed_500mb
65 66 68 66 60 56 55 53 51 56 63 73 78 78 86 79 88 79 77 73 73 84 85 80 80 82 75 70 65 58 55 52 45 43 44 51 50 51 45 44 38 37 37
72 74 73 70 70 68 62 63 61 59 61 65 74 83 87 90 83 91 80 78 75 87 87 80 81 87 83 76 74 69 65 61 53 50 49 59 53 50 49 47 38 38 37
70 71 72 69 69 68 73 73 69 68 68 65 71 81 86 79 101 93 87 75 75 77 87 86 83 89 87 82 82 76 70 68 60 57 57 55 56 51 50 48 41 36 39
64 67 69 71 70 69 67 65 75 73 74 75 75 85 68 74 77 103 91 90 84 82 87 90 88 92 92 89 85 80 74 74 68 65 66 60 64 60 53 50 47 44 43
67 65 64 66 64 63 64 67 67 74 78 78 80 82 80 77 80 100 110 103 98 90 94 93 93 94 96 96 84 86 80 79 79 69 73 67 70 66 58 55 50 47 45
69 66 62 60 57 58 60 64 69 67 67 72 76 84 87 87 84 73 90 104 106 99 100 92 94 96 103 100 100 94 89 85 83 78 81 76 76 67 64 59 55 52 53
60 59 59 57 56 57 56 56 58 61 65 60 65 79 87 93 98 98 89 97 117 115 107 90 97 100 101 108 102 100 98 93 86 83 85 80 81 75 70 65 62 57 58
58 59 55 53 54 55 55 54 54 59 60 52 52 53 51 69 94 103 98 96 96 115 113 102 102 105 108 113 117 108 107 102 94 91 88 88 90 81 74 72 68 64 63
55 56 57 54 54 54 57 57 54 51 57 60 52 47 26 25 42 59 85 107 100 103 122 121 109 121 119 117 114 117 109 114 104 100 90 95 86 80 80 80 75 71 70
60 56 55 52 50 52 55 56 55 55 57 63 59 63 66 67 50 24 43 69 86 112 101 108 132 129 121 119 126 118 117 114 115 109 103 93 97 84 82 88 82 77 77
61 57 55 51 54 52 55 54 53 56 53 62 65 59 69 72 69 80 74 69 44 75 88 107 141 125 124 108 108 114 118 122 119 114 106 111 95 95 90 94 89 84 81
64 57 53 50 51 56 58 59 59 57 59 58 62 65 71 58 57 62 72 72 91 62 69 96 67 108 104 116 117 134 129 116 116 125 122 120 110 95 99 98 96 90 86
66 60 54 53 55 55 57 58 59 58 61 65 66 67 72 81 71 76 65 65 69 80 101 68 94 82 95 109 126 124 119 116 111 118 124 116 111 97 119 108 100 103 97
65 59 55 54 55 54 54 55 59 61 62 68 72 73 73 79 81 71 68 68 64 63 71 97 99 73 81 104 119 110 110 109 102 109 105 145 136 119 135 123 112 110 106
61 59 57 56 56 54 51 53 56 61 63 64 75 74 72 77 81 83 96 66 54 65 68 68 85 115 100 93 74 83 108 110 101 102 109 118 120 115 104 126 112 107 125
55 53 52 52 55 54 53 54 57 59 64 65 68 74 77 76 75 70 83 92 88 60 75 81 56 76 89 92 83 88 112 117 121 111 108 116 110 112 118 128 125 123 135
50 49 48 49 50 51 51 54 56 59 62 64 71 71 75 72 76 71 64 77 90 95 70 71 87 81 73 76 69 71 103 90 102 122 108 130 120 118 128 121 125 136 128
49 47 47 48 49 51 50 53 55 56 60 64 62 63 73 63 74 73 70 72 74 67 69 83 79 50 56 64 72 72 79 92 96 97 105 107 124 137 118 113 107 112 130
50 48 48 48 50 49 49 49 53 53 56 57 53 61 65 62 67 69 68 78 52 84 79 63 65 85 69 56 48 46 49 60 68 71 89 104 97 97 101 106 122 94 129
51 46 45 45 45 46 45 46 48 48 51 45 46 54 63 61 63 59 62 52 69 60 63 35 56 60 61 72 53 49 52 49 53 52 50 52 60 94 88 84 93 104 108
52 48 47 45 44 43 43 48 47 44 38 36 38 46 50 51 55 58 52 50 60 56 62 57 47 49 57 68 55 48 49 45 37 28 36 41 40 40 45 50 71 80 103
54 53 52 50 49 46 42 36 35 28 23 24 30 33 41 45 44 42 50 53 50 55 51 70 56 57 62 67 69 67 48 44 35 33 34 33 40 43 52 75 92 103 108
54 57 59 59 55 54 52 45 36 30 28 31 36 39 40 39 41 36 38 35 45 59 59 58 58 62 65 59 58 64 61 58 49 43 43 43 48 58 57 53 51 55 49
53 56 57 59 59 59 57 53 45 34 26 24 26 26 27 30 31 36 39 41 40 44 55 55 65 55 60 61 64 64 63 55 41 48 56 57 56 56 51 48 41 40 36
45 51 53 56 58 57 56 52 45 37 32 28 20 18 18 13 11 20 31 34 33 36 42 39 42 41 37 33 41 52 51 51 49 57 61 57 57 54 46 41 41 35 28
36 39 43 49 53 57 55 53 47 40 38 36 32 28 25 18 12 2 13 26 30 26 25 29 29 29 31 34 31 28 34 53 56 50 54 50 61 54 36 44 40 36 34
Wind_Direction_500mb
309 306 303 298 290 282 282 280 278 260 262 252 255 249 252 245 239 239 241 240 232 232 239 239 225 223 221 215 215 219 220 220 219 222 217 202 206 202 207 205 200 189 194
302 299 296 293 291 287 277 273 271 270 261 261 257 252 252 250 239 245 240 235 238 234 238 238 227 222 223 219 212 212 218 217 218 221 208 203 211 212 207 210 210 200 200
296 294 291 286 282 278 282 275 266 263 264 259 255 251 246 246 247 236 232 233 236 238 238 240 232 223 214 220 214 214 213 212 221 215 212 212 213 220 211 214 217 210 205
295 290 286 283 282 274 266 272 274 266 260 258 259 256 254 252 252 243 233 242 237 238 237 240 236 227 224 226 219 219 214 211 217 211 216 214 211 214 214 217 217 211 208
300 293 286 283 280 273 265 260 265 271 270 263 259 258 258 258 252 262 249 245 242 237 240 240 237 230 225 224 220 221 220 216 216 215 216 216 211 216 216 216 216 217 214
299 295 288 282 277 271 267 262 260 262 268 273 270 265 258 256 254 254 247 250 236 242 234 241 240 236 230 226 229 229 227 222 219 218 219 216 217 221 216 219 220 218 215
296 293 289 284 279 274 272 268 267 267 265 266 275 273 267 259 252 250 254 240 238 236 238 231 242 240 236 232 228 226 226 224 225 221 223 222 221 221 219 220 221 219 213
302 299 294 287 280 276 272 270 266 265 262 260 261 272 284 274 258 251 245 246 245 248 243 235 235 243 240 238 233 228 226 223 227 225 225 228 222 219 222 220 222 217 213
295 293 291 287 281 276 274 271 267 263 267 261 249 251 264 253 279 263 251 242 242 245 235 233 225 239 237 238 237 233 229 225 226 229 228 226 231 223 221 220 219 216 214
302 300 294 288 281 275 271 271 270 267 262 263 260 242 251 257 273 305 253 248 250 245 249 248 241 234 236 238 237 236 235 231 228 220 226 229 228 232 224 221 220 216 215
301 297 292 286 284 282 276 274 271 266 263 260 256 258 254 255 259 260 269 266 261 246 243 244 231 229 231 232 236 240 239 235 231 229 236 232 229 232 231 222 219 218 215
309 306 299 292 282 281 281 279 273 269 264 261 260 259 254 258 254 256 256 261 261 257 249 241 228 223 234 237 235 240 240 236 236 235 232 237 233 231 235 227 223 219 219
314 311 304 298 291 286 279 278 278 276 270 266 261 258 256 254 256 254 266 262 263 265 263 259 246 239 234 249 238 236 237 241 240 239 239 244 234 233 235 231 227 230 226
314 312 308 300 296 291 288 283 281 276 271 271 271 267 261 253 252 252 257 267 268 264 260 261 256 252 239 229 235 231 244 245 241 242 247 230 235 233 237 232 234 237 229
313 310 302 301 298 295 291 284 277 272 271 265 264 266 267 259 252 253 251 252 269 259 260 269 265 256 248 249 250 254 247 244 247 250 242 238 241 245 246 230 242 243 231
317 312 310 307 305 302 298 291 285 280 273 268 267 267 264 261 260 257 253 253 250 266 259 255 268 258 259 252 249 231 239 246 241 251 246 244 241 244 249 243 251 247 244
326 322 317 310 305 304 300 295 291 288 279 268 265 262 261 258 258 260 259 254 253 253 269 265 266 270 259 253 247 252 244 233 230 233 247 250 255 252 245 245 245 244 238
334 327 324 321 318 313 309 301 296 295 287 273 273 260 254 259 258 262 263 245 253 247 250 258 244 257 260 249 248 248 247 250 250 254 252 243 255 257 243 252 249 256 242
341 338 333 328 324 318 311 310 305 299 295 278 267 260 253 259 260 269 271 246 252 246 243 268 251 249 256 252 243 253 265 256 256 257 252 246 250 248 240 242 247 248 245
353 348 344 340 338 334 328 319 315 308 304 281 269 259 254 253 261 264 260 252 247 251 234 253 262 245 249 249 263 257 262 258 256 252 256 262 258 248 245 246 241 233 223
5 360 357 357 355 350 345 340 325 315 306 289 281 263 254 260 264 261 259 255 254 248 253 254 270 250 243 245 250 233 241 250 230 246 263 264 260 243 214 217 241 223 201
15 13 10 8 5 360 359 351 330 326 316 308 292 282 272 271 259 265 257 247 247 254 257 250 266 264 244 233 238 249 246 224 213 216 226 211 210 207 193 191 190 189 187
19 20 17 13 15 12 7 6 1 338 320 306 299 293 287 278 261 253 260 256 250 249 252 238 249 261 246 243 247 234 231 224 217 193 201 168 168 159 153 154 156 158 161
20 20 21 20 19 20 12 8 7 3 356 338 325 316 296 279 266 258 256 257 259 250 246 239 245 247 258 260 245 241 237 216 201 181 184 152 159 157 156 157 166 168 172
21 20 19 21 22 26 21 16 14 23 26 25 15 9 8 345 280 236 240 243 248 251 247 233 232 242 251 248 235 224 207 205 178 172 176 166 161 160 164 168 173 181 190
15 16 19 25 26 27 31 28 26 30 39 42 43 44 42 32 28 341 250 235 218 191 198 230 218 205 191 174 176 189 210 201 189 171 181 176 169 168 169 181 186 196 202
Wind_Speed_850mb
65 66 68 66 60 56 55 53 51 56 63 73 78 78 86 79 88 79 77 73 73 84 85 80 80 82 75 70 65 58 55 52 45 43 44 51 50 51 45 44 38 37 37
72 74 73 70 70 68 62 63 61 59 61 65 74 83 87 90 83 91 80 78 75 87 87 80 81 87 83 76 74 69 65 61 53 50 49 59 53 50 49 47 38 38 37
70 71 72 69 69 68 73 73 69 68 68 65 71 81 86 79 101 93 87 75 75 77 87 86 83 89 87 82 82 76 70 68 60 57 57 55 56 51 50 48 41 36 39
64 67 69 71 70 69 67 65 75 73 74 75 75 85 68 74 77 103 91 90 84 82 87 90 88 92 92 89 85 80 74 74 68 65 66 60 64 60 53 50 47 44 43
67 65 64 66 64 63 64 67 67 74 78 78 80 82 80 77 80 100 110 103 98 90 94 93 93 94 96 96 84 86 80 79 79 69 73 67 70 66 58 55 50 47 45
69 66 62 60 57 58 60 64 69 67 67 72 76 84 87 87 84 73 90 104 106 99 100 92 94 96 103 100 100 94 89 85 83 78 81 76 76 67 64 59 55 52 53
60 59 59 57 56 57 56 56 58 61 65 60 65 79 87 93 98 98 89 97 117 115 107 90 97 100 101 108 102 100 98 93 86 83 85 80 81 75 70 65 62 57 58
58 59 55 53 54 55 55 54 54 59 60 52 52 53 51 69 94 103 98 96 96 115 113 102 102 105 108 113 117 108 107 102 94 91 88 88 90 81 74 72 68 64 63
55 56 57 54 54 54 57 57 54 51 57 60 52 47 26 25 42 59 85 107 100 103 122 121 109 121 119 117 114 117 109 114 104 100 90 95 86 80 80 80 75 71 70
60 56 55 52 50 52 55 56 55 55 57 63 59 63 66 67 50 24 43 69 86 112 101 108 132 129 121 119 126 118 117 114 115 109 103 93 97 84 82 88 82 77 77
61 57 55 51 54 52 55 54 53 56 53 62 65 59 69 72 69 80 74 69 44 75 88 107 141 125 124 108 108 114 118 122 119 114 106 111 95 95 90 94 89 84 81
64 57 53 50 51 56 58 59 59 57 59 58 62 65 71 58 57 62 72 72 91 62 69 96 67 108 104 116 117 134 129 116 116 125 122 120 110 95 99 98 96 90 86
66 60 54 53 55 55 57 58 59 58 61 65 66 67 72 81 71 76 65 65 69 80 101 68 94 82 95 109 126 124 119 116 111 118 124 116 111 97 119 108 100 103 97
65 59 55 54 55 54 54 55 59 61 62 68 72 73 73 79 81 71 68 68 64 63 71 97 99 73 81 104 119 110 110 109 102 109 105 145 136 119 135 123 112 110 106
61 59 57 56 56 54 51 53 56 61 63 64 75 74 72 77 81 83 96 66 54 65 68 68 85 115 100 93 74 83 108 110 101 102 109 118 120 115 104 126 112 107 125
55 53 52 52 55 54 53 54 57 59 64 65 68 74 77 76 75 70 83 92 88 60 75 81 56 76 89 92 83 88 112 117 121 111 108 116 110 112 118 128 125 123 135
50 49 48 49 50 51 51 54 56 59 62 64 71 71 75 72 76 71 64 77 90 95 70 71 87 81 73 76 69 71 103 90 102 122 108 130 120 118 128 121 125 136 128
49 47 47 48 49 51 50 53 55 56 60 64 62 63 73 63 74 73 70 72 74 67 69 83 79 50 56 64 72 72 79 92 96 97 105 107 124 137 118 113 107 112 130
50 48 48 48 50 49 49 49 53 53 56 57 53 61 65 62 67 69 68 78 52 84 79 63 65 85 69 56 48 46 49 60 68 71 89 104 97 97 101 106 122 94 129
51 46 45 45 45 46 45 46 48 48 51 45 46 54 63 61 63 59 62 52 69 60 63 35 56 60 61 72 53 49 52 49 53 52 50 52 60 94 88 84 93 104 108
52 48 47 45 44 43 43 48 47 44 38 36 38 46 50 51 55 58 52 50 60 56 62 57 47 49 57 68 55 48 49 45 37 28 36 41 40 40 45 50 71 80 103
54 53 52 50 49 46 42 36 35 28 23 24 30 33 41 45 44 42 50 53 50 55 51 70 56 57 62 67 69 67 48 44 35 33 34 33 40 43 52 75 92 103 108
54 57 59 59 55 54 52 45 36 30 28 31 36 39 40 39 41 36 38 35 45 59 59 58 58 62 65 59 58 64 61 58 49 43 43 43 48 58 57 53 51 55 49
53 56 57 59 59 59 57 53 45 34 26 24 26 26 27 30 31 36 39 41 40 44 55 55 65 55 60 61 64 64 63 55 41 48 56 57 56 56 51 48 41 40 36
45 51 53 56 58 57 56 52 45 37 32 28 20 18 18 13 11 20 31 34 33 36 42 39 42 41 37 33 41 52 51 51 49 57 61 57 57 54 46 41 41 35 28
36 39 43 49 53 57 55 53 47 40 38 36 32 28 25 18 12 2 13 26 30 26 25 29 29 29 31 34 31 28 34 53 56 50 54 50 61 54 36 44 40 36 34
Wind_Direction_850mb
309 306 303 298 290 282 282 280 278 260 262 252 255 249 252 245 239 239 241 240 232 232 239 239 225 223 221 215 215 219 220 220 219 222 217 202 206 202 207 205 200 189 194
302 299 296 293 291 287 277 273 271 270 261 261 257 252 252 250 239 245 240 235 238 234 238 238 227 222 223 219 212 212 218 217 218 221 208 203 211 212 207 210 210 200 200
296 294 291 286 282 278 282 275 266 263 264 259 255 251 246 246 247 236 232 233 236 238 238 240 232 223 214 220 214 214 213 212 221 215 212 212 213 220 211 214 217 210 205
295 290 286 283 282 274 266 272 274 266 260 258 259 256 254 252 252 243 233 242 237 238 237 240 236 227 224 226 219 219 214 211 217 211 216 214 211 214 214 217 217 211 208
300 293 286 283 280 273 265 260 265 271 270 263 259 258 258 258 252 262 249 245 242 237 240 240 237 230 225 224 220 221 220 216 216 215 216 216 211 216 216 216 216 217 214
299 295 288 282 277 271 267 262 260 262 268 273 270 265 258 256 254 254 247 250 236 242 234 241 240 236 230 226 229 229 227 222 219 218 219 216 217 221 216 219 220 218 215
296 293 289 284 279 274 272 268 267 267 265 266 275 273 267 259 252 250 254 240 238 236 238 231 242 240 236 232 228 226 226 224 225 221 223 222 221 221 219 220 221 219 213
302 299 294 287 280 276 272 270 266 265 262 260 261 272 284 274 258 251 245 246 245 248 243 235 235 243 240 238 233 228 226 223 227 225 225 228 222 219 222 220 222 217 213
295 293 291 287 281 276 274 271 267 263 267 261 249 251 264 253 279 263 251 242 242 245 235 233 225 239 237 238 237 233 229 225 226 229 228 226 231 223 221 220 219 216 214
302 300 294 288 281 275 271 271 270 267 262 263 260 242 251 257 273 305 253 248 250 245 249 248 241 234 236 238 237 236 235 231 228 220 226 229 228 232 224 221 220 216 215
301 297 292 286 284 282 276 274 271 266 263 260 256 258 254 255 259 260 269 266 261 246 243 244 231 229 231 232 236 240 239 235 231 229 236 232 229 232 231 222 219 218 215
309 306 299 292 282 281 281 279 273 269 264 261 260 259 254 258 254 256 256 261 261 257 249 241 228 223 234 237 235 240 240 236 236 235 232 237 233 231 235 227 223 219 219
314 311 304 298 291 286 279 278 278 276 270 266 261 258 256 254 256 254 266 262 263 265 263 259 246 239 234 249 238 236 237 241 240 239 239 244 234 233 235 231 227 230 226
314 312 308 300 296 291 288 283 281 276 271 271 271 267 261 253 252 252 257 267 268 264 260 261 256 252 239 229 235 231 244 245 241 242 247 230 235 233 237 232 234 237 229
313 310 302 301 298 295 291 284 277 272 271 265 264 266 267 259 252 253 251 252 269 259 260 269 265 256 248 249 250 254 247 244 247 250 242 238 241 245 246 230 242 243 231
317 312 310 307 305 302 298 291 285 280 273 268 267 267 264 261 260 257 253 253 250 266 259 255 268 258 259 252 249 231 239 246 241 251 246 244 241 244 249 243 251 247 244
326 322 317 310 305 304 300 295 291 288 279 268 265 262 261 258 258 260 259 254 253 253 269 265 266 270 259 253 247 252 244 233 230 233 247 250 255 252 245 245 245 244 238
334 327 324 321 318 313 309 301 296 295 287 273 273 260 254 259 258 262 263 245 253 247 250 258 244 257 260 249 248 248 247 250 250 254 252 243 255 257 243 252 249 256 242
341 338 333 328 324 318 311 310 305 299 295 278 267 260 253 259 260 269 271 246 252 246 243 268 251 249 256 252 243 253 265 256 256 257 252 246 250 248 240 242 247 248 245
353 348 344 340 338 334 328 319 315 308 304 281 269 259 254 253 261 264 260 252 247 251 234 253 262 245 249 249 263 257 262 258 256 252 256 262 258 248 245 246 241 233 223
5 360 357 357 355 350 345 340 325 315 306 289 281 263 254 260 264 261 259 255 254 248 253 254 270 250 243 245 250 233 241 250 230 246 263 264 260 243 214 217 241 223 201
15 13 10 8 5 360 359 351 330 326 316 308 292 282 272 271 259 265 257 247 247 254 257 250 266 264 244 233 238 249 246 224 213 216 226 211 210 207 193 191 190 189 187
19 20 17 13 15 12 7 6 1 338 320 306 299 293 287 278 261 253 260 256 250 249 252 238 249 261 246 243 247 234 231 224 217 193 201 168 168 159 153 154 156 158 161
20 20 21 20 19 20 12 8 7 3 356 338 325 316 296 279 266 258 256 257 259 250 246 239 245 247 258 260 245 241 237 216 201 181 184 152 159 157 156 157 166 168 172
21 20 19 21 22 26 21 16 14 23 26 25 15 9 8 345 280 236 240 243 248 251 247 233 232 242 251 248 235 224 207 205 178 172 176 166 161 160 164 168 173 181 190
15 16 19 25 26 27 31 28 26 30 39 42 43 44 42 32 28 341 250 235 218 191 198 230 218 205 191 174 176 189 210 201 189 171 181 176 169 168 169 181 186 196 202